[[{"header":{"parameterUnit":"m.s-1","parameterCategory":1,"la1":30.2991,"la2":30.254,"lo1":-89.0895,"lo2":-89.0444,"dy":0.0017,"dx":0.0017,"nx":28,"ny":28,"refTime":"2025-04-22T03:00:00:Z","depth":0,"parameterNumber":2,"parameterNumberName":"U-component_of_WINDS"},"data":[0,0,0,0,0,0,0,0,0,0,0,0,0,0,0,0,0,0,0,0,0,0,0,0,0,0,0,0,0,0,0,0,0,0,0,0,0,0,0,0,0,0,0,0,0,0,0,0,0,0,0,0,0,0,0,0,0,0,-2.7728,-2.7729,0,-2.7842,-2.7844,-2.7845,-2.7857,-2.7856,-2.7855,-2.7854,-2.7968,-2.7972,-2.7976,0,0,0,0,0,0,0,0,0,0,0,0,0,-2.752,-2.7524,-2.7728,-2.773,-2.7731,-2.7842,-2.7844,-2.7845,-2.7857,-2.7856,-2.7854,-2.7853,-2.7967,-2.7972,-2.7977,0,0,0,0,0,0,0,0,0,0,0,0,0,-2.762,-2.7525,-2.7728,-2.775,-2.7754,-2.7842,-2.7844,-2.7846,-2.7857,-2.7856,-2.7854,-2.7852,-2.7965,-2.7971,-2.7977,-2.805,0,0,-2.7996,-2.7999,0,0,0,0,0,0,0,0,-2.7614,-2.7628,-2.7746,-2.7749,-2.7753,-2.7834,-2.7812,-2.7914,-2.7858,-2.7818,-2.7853,-2.7851,-2.7925,-2.7934,-2.7959,-2.8056,-2.8061,-2.7997,-2.8001,-2.8003,-2.8005,0,0,0,0,0,0,0,-2.7607,-2.7623,-2.7773,-2.7747,-2.7752,-2.7755,-2.7767,-2.7832,-2.788,-2.7821,-2.7822,-2.7836,-2.7926,-2.7953,-2.7962,-2.8062,-2.7997,-2.8002,-2.8006,-2.8009,-2.8225,-2.8227,0,0,0,0,0,0,-2.7597,-2.7617,-2.777,-2.7777,-2.7678,-2.776,-2.7774,-2.7809,-2.7879,-2.7888,-2.7837,-2.7836,-2.7944,-2.7955,-2.7966,-2.8056,-2.8003,-2.8009,-2.8013,-2.8223,-2.8226,-2.8228,0,0,0,0,0,0,-2.7592,-2.761,-2.7765,-2.7697,-2.7717,-2.7765,-2.7805,-2.7813,-2.7839,-2.7891,-2.7899,-2.7856,-2.7943,-2.7957,-2.803,-2.8061,-2.8012,-2.8018,-2.8221,-2.8224,-2.8227,-2.8237,0,0,0,0,0,0,-2.7586,-2.7608,-2.7637,-2.7698,-2.7721,-2.7827,-2.7807,-2.7816,-2.785,-2.785,-2.7911,-2.7919,-2.7942,-2.802,-2.8036,-2.8068,-2.8022,-2.8218,-2.8222,-2.8226,-2.8234,-2.824,-2.8245,0,0,0,0,0,-2.7579,-2.7634,-2.7638,-2.7656,-2.7757,-2.7829,-2.7842,-2.7868,-2.7853,-2.7882,-2.7915,-2.7917,-2.8055,-2.8028,-2.8045,-2.808,-2.8216,-2.8221,-2.8226,-2.8232,-2.8239,-2.8245,0,0,0,0,0,0,-2.7574,-2.7643,-2.7647,-2.7725,-2.7771,-2.783,-2.7867,-2.7874,-2.7925,-2.7922,-2.7952,-2.7966,-2.8037,-2.8066,-2.8034,-2.8155,-2.8134,-2.8142,-2.8133,-2.814,-2.8146,-2.8137,-2.8028,0,0,0,0,0,-2.7583,-2.7635,-2.7692,-2.7755,-2.7778,-2.7819,-2.7851,-2.7867,-2.7916,-2.7935,-2.7974,-2.802,-2.8074,-2.8109,-2.8161,-2.8239,-2.8252,-2.8272,-2.8277,-2.8281,-2.8288,-2.8332,-2.8341,-2.8243,-2.8243,-2.8243,0,0,-2.76,-2.7644,-2.7675,-2.7755,-2.7793,-2.7846,-2.7835,-2.7892,-2.7932,-2.7944,-2.8014,-2.8044,-2.8099,-2.8174,-2.8209,-2.82,-2.8318,-2.8287,-2.829,-2.8295,-2.8337,-2.8346,-2.8355,-2.8246,-2.8246,-2.8245,0,0,-2.7658,-2.7697,-2.7754,-2.7792,-2.785,-2.7877,-2.7891,-2.795,-2.7971,-2.8042,-2.8052,-2.81,-2.8192,-2.8231,-2.8263,-2.8338,-2.8342,-2.8354,-2.8382,-2.8425,-2.8432,-2.8439,-2.8466,-2.8475,-2.8361,-2.8361,-2.8361,0,-2.7672,-2.7754,-2.7782,-2.7839,-2.7874,-2.7889,-2.7946,-2.7982,-2.8053,-2.8077,-2.8067,-2.8183,-2.8221,-2.8306,-2.8324,-2.835,-2.8366,-2.8347,-2.8429,-2.8436,-2.8443,-2.8469,-2.8479,-2.8362,-2.8362,-2.8362,-2.8361,0,-2.7768,-2.7825,-2.7864,-2.7933,-2.7973,-2.803,-2.8067,-2.8104,-2.8117,-2.8145,-2.8218,-2.8264,-2.8327,-2.8348,-2.8361,-2.8435,-2.8428,-2.8423,-2.8403,-2.8453,-2.8478,-2.8488,-2.8363,-2.8363,-2.8363,-2.8362,0,0,-2.7825,-2.7911,-2.7925,-2.7957,-2.8023,-2.8067,-2.8125,-2.8187,-2.8218,-2.8267,-2.8317,-2.8395,-2.8391,-2.8427,-2.8445,-2.8482,-2.8539,-2.8473,-2.8475,-2.8483,-2.8624,-2.8627,-2.8638,-2.8543,-2.8545,-2.8547,-2.8619,0,-2.7891,-2.7996,-2.8023,-2.8112,-2.8165,-2.818,-2.8231,-2.8276,-2.8305,-2.8353,-2.8385,-2.844,-2.8431,-2.8453,-2.849,-2.8524,-2.8568,-2.852,-2.8589,-2.8591,-2.8574,-2.8651,-2.8654,-2.872,-2.8629,-2.8631,-2.8632,0,-2.7981,-2.8034,-2.8128,-2.8187,-2.821,-2.8256,-2.8315,-2.8362,-2.8414,-2.8432,-2.8473,-2.8488,-2.8549,-2.8527,-2.8612,-2.8579,-2.8609,-2.863,-2.8633,-2.864,-2.8614,-2.8659,-2.8742,-2.8751,-2.8648,-2.8646,-2.8645,0,-2.8014,-2.8108,-2.8176,-2.8203,-2.8275,-2.8306,-2.8337,-2.8388,-2.8424,-2.8476,-2.8499,-2.8557,-2.8589,-2.8634,-2.8664,-2.8645,-2.8746,-2.8727,-2.8763,-2.8762,-2.8783,-2.8781,-2.8871,-2.8803,-2.8803,-2.8803,-2.8803,0,-2.8084,-2.814,-2.8192,-2.8234,-2.8298,-2.833,-2.8392,-2.8424,-2.8469,-2.8518,-2.8535,-2.858,-2.8617,-2.8667,-2.8692,-2.8758,-2.8772,-2.8789,-2.8794,-2.8787,-2.8785,-2.8806,-2.8802,-2.8806,-2.8805,-2.8804,-2.8804,0,-2.813,-2.8167,-2.8242,-2.8304,-2.8321,-2.8366,-2.8419,-2.846,-2.849,-2.8551,-2.8567,-2.8614,-2.8674,-2.8709,-2.8784,-2.8801,-2.8875,-2.8878,-2.8857,-2.8859,-2.8894,-2.889,-2.9,-2.9016,-2.8938,-2.8939,-2.894,0,-2.8172,-2.8216,-2.8283,-2.8317,-2.8349,-2.8404,-2.8441,-2.8474,-2.8512,-2.8576,-2.861,-2.8671,-2.8722,-2.8817,-2.8857,-2.8916,-2.892,-2.8955,-2.8929,-2.8921,-2.8921,-2.8917,-2.8922,-2.8959,-2.896,-2.896,-2.8961,0,-2.8242,-2.8259,-2.8311,-2.8371,-2.8415,-2.8464,-2.8512,-2.8539,-2.858,-2.8622,-2.8684,-2.8723,-2.8802,-2.8862,-2.8924,-2.8956,-2.8966,-2.8969,-2.8981,-2.8973,-2.8959,-2.8967,-2.8869,-2.8966,-2.8965,-2.8965,-2.8965,-2.8965,-2.8288,-2.8328,-2.8382,-2.844,-2.8481,-2.8525,-2.8568,-2.8603,-2.8656,-2.8722,-2.8739,-2.8804,-2.8857,-2.8941,-2.8975,-2.9026,-2.902,-2.9037,-2.9041,-2.9044,-2.9045,-2.8951,-2.9038,-2.9038,-2.9037,-2.9037,-2.9037,0,-2.8359,-2.8395,-2.8448,-2.8516,-2.8562,-2.8568,-2.8622,-2.866,-2.8718,-2.8766,-2.8816,-2.8888,-2.8948,-2.8993,-2.9054,-2.9087,-2.9093,-2.9102,-2.9099,-2.9107,-2.9047,-2.9031,-2.9096,-2.9096,-2.9096,-2.9096,-2.9096,-2.9096,-2.8401,-2.847,-2.8493,-2.8582,-2.8617,-2.8682,-2.8712,-2.8754,-2.8793,-2.8873,-2.8923,-2.8952,-2.9,-2.9065,-2.9119,-2.9131,-2.9153,-2.9161,-2.9174,-2.9117,-2.9111,-2.9105,-2.909,-2.9166,-2.9166,-2.9229,-2.9229,-2.923]},{"header":{"parameterUnit":"m.s-1","parameterCategory":1,"la1":30.2991,"la2":30.254,"lo1":-89.0895,"lo2":-89.0444,"dy":0.0017,"dx":0.0017,"nx":28,"ny":28,"refTime":"2025-04-22T03:00:00:Z","depth":0,"parameterNumber":3,"parameterNumberName":"V-component_of_WINDS"},"data":[0,0,0,0,0,0,0,0,0,0,0,0,0,0,0,0,0,0,0,0,0,0,0,0,0,0,0,0,0,0,0,0,0,0,0,0,0,0,0,0,0,0,0,0,0,0,0,0,0,0,0,0,0,0,0,0,0,0,3.7963,3.7963,0,3.8025,3.8026,3.8026,3.8006,3.8005,3.8004,3.8002,3.8063,3.8066,3.8069,0,0,0,0,0,0,0,0,0,0,0,0,0,3.7823,3.7826,3.7963,3.7963,3.7964,3.8025,3.8026,3.8027,3.8007,3.8005,3.8003,3.8002,3.8062,3.8066,3.8069,0,0,0,0,0,0,0,0,0,0,0,0,0,3.7884,3.7827,3.7962,3.7962,3.7962,3.8025,3.8026,3.8027,3.8007,3.8005,3.8003,3.8001,3.8061,3.8065,3.8069,3.8136,0,0,3.8083,3.8084,0,0,0,0,0,0,0,0,3.7881,3.789,3.7961,3.7962,3.7962,3.8006,3.7999,3.8063,3.8007,3.799,3.8002,3.8,3.8046,3.8051,3.8067,3.8139,3.8141,3.8083,3.8086,3.8087,3.8089,0,0,0,0,0,0,0,3.7877,3.7887,3.7987,3.7962,3.7963,3.7957,3.7964,3.8011,3.8028,3.7991,3.799,3.7998,3.8046,3.8063,3.8068,3.8142,3.8083,3.8087,3.8089,3.8091,3.8271,3.8273,0,0,0,0,0,0,3.7873,3.7883,3.7985,3.7989,3.7916,3.7961,3.7969,3.7994,3.8027,3.8031,3.7999,3.7997,3.8057,3.8063,3.807,3.8149,3.8087,3.8091,3.8094,3.8268,3.8271,3.8273,0,0,0,0,0,0,3.787,3.7882,3.7983,3.7936,3.7948,3.7966,3.7994,3.7996,3.8013,3.8034,3.8036,3.8014,3.8055,3.8064,3.812,3.8151,3.8093,3.8097,3.8266,3.8269,3.8272,3.8309,0,0,0,0,0,0,3.7866,3.7881,3.7907,3.7937,3.7951,3.8032,3.7996,3.7999,3.8021,3.8018,3.8048,3.8051,3.8054,3.8113,3.8124,3.8156,3.8101,3.8263,3.8267,3.8271,3.8305,3.8313,3.832,0,0,0,0,0,3.7861,3.7914,3.7908,3.7921,3.7984,3.8034,3.8042,3.8045,3.8024,3.805,3.8063,3.805,3.8146,3.8119,3.8131,3.8165,3.8261,3.8266,3.8271,3.8301,3.8311,3.832,0,0,0,0,0,0,3.7886,3.7918,3.7912,3.7977,3.8003,3.803,3.8063,3.8056,3.8088,3.8083,3.8086,3.8092,3.8149,3.8163,3.8132,3.8231,3.82,3.8208,3.822,3.8229,3.8237,3.8231,3.8104,0,0,0,0,0,3.79,3.7939,3.7964,3.8018,3.8032,3.8045,3.8067,3.8068,3.8095,3.8105,3.8122,3.8148,3.8184,3.8207,3.8242,3.8307,3.8313,3.8336,3.8344,3.835,3.8356,3.8391,3.8401,3.829,3.829,3.829,0,0,3.7927,3.7949,3.7974,3.8024,3.8044,3.8084,3.8055,3.8097,3.8126,3.8111,3.8165,3.8178,3.8207,3.8268,3.8295,3.8281,3.8388,3.8356,3.8361,3.8364,3.8397,3.8407,3.8417,3.8293,3.8293,3.8292,0,0,3.7997,3.8019,3.8066,3.8087,3.8119,3.8128,3.8139,3.8168,3.8177,3.8231,3.822,3.8254,3.8316,3.8337,3.8356,3.8435,3.8424,3.8446,3.8485,3.8519,3.8527,3.8535,3.8562,3.8572,3.8452,3.8452,3.8452,0,3.8027,3.8087,3.8091,3.8135,3.8157,3.8147,3.8194,3.8215,3.8255,3.827,3.8254,3.8332,3.835,3.8415,3.8435,3.8451,3.8463,3.8442,3.8526,3.8534,3.8541,3.8567,3.8577,3.8454,3.8454,3.8454,3.8454,0,3.8121,3.8163,3.8197,3.8238,3.8264,3.831,3.832,3.8346,3.8345,3.8355,3.8409,3.8432,3.847,3.8486,3.8484,3.8551,3.8541,3.8525,3.8495,3.8554,3.8578,3.8588,3.8458,3.8457,3.8456,3.8456,0,0,3.8208,3.8252,3.8264,3.8282,3.8317,3.8348,3.8393,3.8432,3.8453,3.8482,3.8519,3.8572,3.8558,3.858,3.8581,3.8611,3.8671,3.8591,3.8592,3.8604,3.8744,3.8755,3.8766,3.8664,3.8666,3.8668,3.8742,0,3.828,3.836,3.8366,3.8437,3.8475,3.8466,3.8505,3.853,3.8541,3.8574,3.8585,3.8623,3.8602,3.8615,3.8644,3.8657,3.8698,3.8652,3.8698,3.8699,3.869,3.8779,3.8791,3.8859,3.8751,3.8753,3.8754,0,3.8375,3.8408,3.8483,3.8512,3.8528,3.8563,3.8599,3.8631,3.8659,3.8665,3.8689,3.8686,3.8731,3.87,3.8762,3.873,3.8749,3.8758,3.8761,3.8764,3.8729,3.8784,3.8881,3.8891,3.8769,3.8768,3.8767,0,3.843,3.8492,3.8546,3.8562,3.8597,3.8622,3.8638,3.8664,3.8687,3.8718,3.8732,3.8768,3.8787,3.8815,3.8821,3.8798,3.8882,3.8852,3.8887,3.8887,3.8904,3.8903,3.9005,3.8919,3.8919,3.8918,3.8918,0,3.8509,3.8555,3.8571,3.8603,3.8655,3.866,3.8711,3.8725,3.8748,3.8783,3.8777,3.881,3.8817,3.885,3.8855,3.8905,3.8914,3.8919,3.892,3.8919,3.8918,3.8931,3.8926,3.8921,3.892,3.892,3.8919,0,3.8578,3.859,3.8648,3.8677,3.8685,3.8722,3.8747,3.8777,3.8788,3.8832,3.8842,3.8859,3.8898,3.8907,3.8954,3.8957,3.9016,3.9013,3.9007,3.9006,3.9041,3.9037,3.9153,3.9168,3.9073,3.9074,3.9075,0,3.8627,3.8663,3.8696,3.8719,3.8737,3.8774,3.8798,3.8805,3.8829,3.8864,3.889,3.8929,3.8961,3.9024,3.9039,3.9075,3.9071,3.911,3.9077,3.9075,3.9071,3.9068,3.9071,3.9116,3.9117,3.9117,3.9118,0,3.8713,3.8717,3.8752,3.8789,3.8818,3.8847,3.8875,3.8894,3.8905,3.8932,3.8973,3.8998,3.9046,3.9084,3.912,3.9135,3.9128,3.9129,3.9139,3.9138,3.9133,3.9135,3.9023,3.9126,3.9125,3.9124,3.9124,3.9124,3.8773,3.8804,3.8833,3.8871,3.8893,3.892,3.895,3.8965,3.8999,3.9039,3.9041,3.9085,3.9112,3.916,3.9177,3.9211,3.9199,3.9214,3.9218,3.9221,3.9223,3.9128,3.9218,3.9218,3.9218,3.9217,3.9217,0,3.8858,3.8876,3.8911,3.8951,3.8981,3.8974,3.9004,3.903,3.9069,3.9095,3.9126,3.9173,3.921,3.9229,3.9266,3.929,3.9287,3.9299,3.9297,3.93,3.9232,3.922,3.93,3.93,3.93,3.93,3.93,3.93,3.8905,3.8957,3.8965,3.9028,3.9045,3.9089,3.9107,3.9131,3.9152,3.9205,3.9236,3.9248,3.9271,3.931,3.9344,3.9348,3.9362,3.9375,3.9377,3.9313,3.9305,3.9297,3.9285,3.9378,3.9378,3.9442,3.9443,3.9443]}]]